Location: Invercargill
(46.4000°S, 168.3500°E)
Time: 16:14:47
(UTC+13:00)

Cosmos 1862 - Pass Details

Date: 24 January 2019
Orbit: 540 x 557 km, 82.5° (Epoch: 16 February)

Event Time Altitude Azimuth Distance (km) Brightness Sun altitude
Rises 22:20:33 0° 187° (S) 2,765 7.7 -8.0°
Reaches altitude 10° 22:22:46 10° 184° (S) 1,859 6.7 -8.3°
Maximum altitude 22:26:50 67° 101° (E) 608 3.4 -8.8°
Drops below altitude 10° 22:30:50 10° 17° (NNE) 1,822 5.5 -9.4°
Enters shadow 22:31:07 - 17° (NNE) 1,936 5.6 -9.4°
